Location: Camp at the Woods
(43.2055°N, 93.0905°W)
Time: 07:24:25
(UTC+00:00)

COSMO-SKYMED 1 - Pass Details

Date: 05 December 2023
Orbit: 622 x 623 km, 97.9° (Epoch: 29 February)

Event Time Altitude Azimuth Distance (km) Brightness Sun altitude
Rises 12:03:00 0° 189° (S) 2,886 6.1 -15.1°
Reaches altitude 10° 12:05:21 10° 199° (SSW) 1,985 5.1 -14.7°
Maximum altitude 12:09:15 32° 263° (W) 1,062 3.3 -14.0°
Enters shadow 12:12:00 17° 319° (NW) 1,599 4.2 -13.5°
